Precipitable_Water
0.73 0.81 0.89 0.91 1.00 1.07 1.15 1.17 1.12 0.99 0.87 0.79 0.76 0.74 0.68 0.67 0.68 0.68 0.69 0.68 0.67 0.64 0.65 0.61 0.58 0.53 0.44 0.37 0.38 0.62 0.61 0.53 0.44 0.37 0.36 0.40 0.34 0.31 0.29 0.30 0.30 0.29 0.34 0.37 0.38 0.41 0.57
0.56 0.61 0.73 0.84 0.92 0.91 1.06 1.13 1.16 1.10 0.96 0.85 0.78 0.77 0.72 0.68 0.70 0.69 0.70 0.69 0.66 0.65 0.65 0.61 0.57 0.52 0.40 0.25 0.48 0.59 0.58 0.52 0.40 0.37 0.43 0.43 0.36 0.36 0.34 0.35 0.30 0.35 0.36 0.38 0.39 0.45 0.53
0.53 0.54 0.58 0.65 0.83 0.89 0.91 1.01 1.13 1.14 1.07 0.92 0.81 0.78 0.74 0.69 0.72 0.71 0.71 0.69 0.66 0.66 0.64 0.60 0.55 0.49 0.36 0.26 0.52 0.63 0.56 0.55 0.49 0.46 0.42 0.43 0.45 0.40 0.42 0.42 0.45 0.42 0.34 0.35 0.42 0.51 0.59
0.52 0.51 0.54 0.56 0.61 0.77 0.81 0.94 0.97 1.13 1.12 1.01 0.87 0.80 0.75 0.71 0.72 0.72 0.70 0.68 0.66 0.67 0.62 0.57 0.55 0.49 0.28 0.46 0.52 0.49 0.57 0.58 0.62 0.59 0.51 0.52 0.52 0.43 0.44 0.54 0.40 0.32 0.33 0.35 0.46 0.45 0.48
0.49 0.48 0.50 0.55 0.57 0.58 0.74 0.80 0.91 1.01 1.11 1.07 0.92 0.81 0.76 0.71 0.73 0.72 0.71 0.67 0.66 0.65 0.60 0.57 0.49 0.49 0.33 0.57 0.43 0.44 0.53 0.50 0.56 0.55 0.55 0.54 0.49 0.44 0.48 0.41 0.33 0.33 0.30 0.36 0.38 0.44 0.47
0.48 0.49 0.49 0.50 0.53 0.55 0.61 0.73 0.79 0.92 1.05 1.04 0.92 0.79 0.74 0.71 0.74 0.73 0.71 0.67 0.67 0.62 0.58 0.57 0.49 0.39 0.39 0.37 0.41 0.46 0.54 0.53 0.51 0.51 0.49 0.46 0.46 0.41 0.42 0.41 0.29 0.33 0.28 0.32 0.36 0.36 0.38
0.49 0.49 0.47 0.44 0.47 0.52 0.55 0.63 0.72 0.86 0.95 1.03 0.93 0.78 0.72 0.72 0.75 0.74 0.68 0.61 0.55 0.58 0.54 0.28 0.41 0.35 0.42 0.50 0.52 0.43 0.52 0.45 0.52 0.49 0.45 0.49 0.41 0.36 0.40 0.40 0.43 0.38 0.34 0.32 0.29 0.31 0.27
0.50 0.50 0.51 0.48 0.46 0.48 0.48 0.54 0.63 0.79 0.88 1.02 0.94 0.79 0.69 0.72 0.75 0.75 0.68 0.50 0.56 0.68 0.47 0.54 0.33 0.41 0.48 0.52 0.41 0.39 0.49 0.37 0.46 0.41 0.54 0.47 0.35 0.44 0.49 0.44 0.38 0.32 0.32 0.30 0.27 0.26 0.21
0.48 0.51 0.49 0.50 0.49 0.46 0.47 0.50 0.60 0.71 0.87 1.01 0.96 0.81 0.67 0.72 0.76 0.70 0.56 0.47 0.66 0.73 0.42 0.42 0.40 0.26 0.37 0.45 0.37 0.37 0.43 0.36 0.42 0.40 0.45 0.48 0.41 0.50 0.41 0.35 0.31 0.32 0.39 0.36 0.37 0.29 0.20
0.47 0.48 0.50 0.50 0.48 0.46 0.47 0.49 0.56 0.60 0.83 0.93 0.96 0.84 0.66 0.73 0.62 0.64 0.51 0.57 0.63 0.70 0.34 0.35 0.36 0.30 0.37 0.44 0.36 0.44 0.44 0.36 0.43 0.39 0.47 0.48 0.50 0.44 0.38 0.34 0.35 0.35 0.48 0.38 0.40 0.32 0.19
0.42 0.47 0.48 0.50 0.49 0.49 0.47 0.49 0.48 0.56 0.76 0.88 0.97 0.87 0.66 0.70 0.71 0.60 0.71 0.61 0.67 0.72 0.22 0.33 0.37 0.41 0.39 0.37 0.40 0.37 0.46 0.38 0.40 0.39 0.40 0.41 0.44 0.40 0.37 0.38 0.40 0.34 0.42 0.41 0.35 0.29 0.31
0.45 0.43 0.48 0.49 0.50 0.49 0.46 0.46 0.46 0.53 0.70 0.89 1.00 0.90 0.69 0.68 0.68 0.71 0.85 0.83 0.77 0.37 0.21 0.29 0.32 0.32 0.35 0.37 0.38 0.41 0.37 0.40 0.42 0.40 0.44 0.47 0.57 0.52 0.41 0.41 0.37 0.42 0.34 0.35 0.31 0.30 0.29
0.53 0.45 0.48 0.50 0.51 0.50 0.48 0.45 0.45 0.49 0.61 0.88 1.02 0.93 0.65 0.72 0.57 0.71 0.78 0.70 0.37 0.26 0.32 0.30 0.28 0.33 0.33 0.35 0.33 0.33 0.34 0.29 0.30 0.31 0.34 0.39 0.38 0.47 0.43 0.34 0.36 0.34 0.32 0.28 0.34 0.31 0.21
0.45 0.50 0.45 0.51 0.51 0.50 0.48 0.46 0.43 0.45 0.53 0.79 1.01 0.93 0.69 0.69 0.87 0.89 0.75 0.57 0.27 0.29 0.35 0.33 0.31 0.35 0.32 0.35 0.33 0.30 0.32 0.26 0.32 0.32 0.31 0.32 0.34 0.39 0.37 0.35 0.39 0.38 0.32 0.28 0.27 0.29 0.28
0.46 0.48 0.47 0.50 0.51 0.54 0.50 0.46 0.45 0.43 0.51 0.75 0.99 0.89 0.68 0.67 0.83 0.84 0.66 0.36 0.30 0.36 0.36 0.37 0.32 0.31 0.32 0.33 0.33 0.30 0.27 0.28 0.30 0.31 0.30 0.35 0.38 0.54 0.45 0.39 0.37 0.43 0.32 0.39 0.31 0.31 0.20
0.47 0.49 0.49 0.51 0.52 0.55 0.54 0.44 0.46 0.45 0.51 0.80 0.80 0.76 0.62 0.74 0.85 0.72 0.52 0.35 0.39 0.46 0.40 0.39 0.27 0.30 0.29 0.30 0.28 0.30 0.27 0.32 0.29 0.32 0.41 0.43 0.38 0.53 0.47 0.39 0.31 0.27 0.33 0.27 0.26 0.15 0.13
0.47 0.50 0.52 0.51 0.52 0.57 0.56 0.49 0.48 0.48 0.54 0.82 0.76 0.58 0.63 0.76 0.83 0.56 0.32 0.38 0.43 0.52 0.48 0.39 0.30 0.30 0.31 0.30 0.29 0.27 0.26 0.30 0.32 0.40 0.42 0.41 0.40 0.48 0.48 0.32 0.22 0.35 0.33 0.26 0.23 0.29 0.22
0.52 0.53 0.52 0.52 0.54 0.61 0.58 0.54 0.50 0.51 0.60 0.83 0.66 0.44 0.70 0.77 0.47 0.39 0.34 0.41 0.48 0.54 0.54 0.44 0.37 0.34 0.32 0.33 0.31 0.25 0.26 0.31 0.37 0.41 0.37 0.33 0.38 0.36 0.37 0.40 0.36 0.34 0.35 0.35 0.26 0.20 0.25
0.53 0.52 0.51 0.53 0.57 0.63 0.59 0.55 0.53 0.54 0.63 0.75 0.54 0.60 0.90 0.69 0.33 0.30 0.40 0.43 0.48 0.53 0.55 0.44 0.37 0.37 0.36 0.31 0.29 0.29 0.33 0.47 0.46 0.37 0.34 0.38 0.30 0.24 0.26 0.33 0.37 0.28 0.23 0.26 0.29 0.34 0.23
0.50 0.50 0.49 0.55 0.58 0.62 0.59 0.56 0.56 0.54 0.70 0.79 0.60 0.47 0.71 0.69 0.47 0.34 0.35 0.38 0.41 0.55 0.48 0.49 0.40 0.36 0.36 0.33 0.38 0.34 0.35 0.44 0.47 0.44 0.40 0.42 0.34 0.25 0.19 0.21 0.36 0.35 0.37 0.31 0.31 0.26 0.23
0.48 0.47 0.47 0.56 0.60 0.64 0.60 0.57 0.58 0.54 0.70 0.81 0.64 0.45 0.59 0.43 0.41 0.36 0.46 0.42 0.43 0.42 0.46 0.49 0.39 0.34 0.33 0.31 0.35 0.32 0.35 0.42 0.41 0.39 0.34 0.32 0.22 0.21 0.23 0.29 0.34 0.32 0.35 0.34 0.31 0.32 0.27
0.45 0.45 0.51 0.56 0.60 0.65 0.62 0.61 0.59 0.58 0.73 0.71 0.53 0.48 0.56 0.52 0.52 0.39 0.45 0.41 0.43 0.44 0.42 0.44 0.40 0.36 0.36 0.34 0.32 0.31 0.37 0.42 0.33 0.33 0.29 0.33 0.23 0.30 0.30 0.35 0.32 0.27 0.27 0.28 0.27 0.29 0.27
0.46 0.51 0.58 0.59 0.62 0.62 0.61 0.61 0.56 0.60 0.81 0.68 0.71 0.68 0.65 0.50 0.48 0.37 0.40 0.47 0.51 0.49 0.45 0.48 0.45 0.41 0.38 0.45 0.52 0.57 0.53 0.55 0.47 0.43 0.35 0.36 0.31 0.32 0.24 0.30 0.26 0.19 0.20 0.22 0.23 0.27 0.28
0.48 0.53 0.61 0.61 0.60 0.58 0.58 0.58 0.56 0.63 0.80 0.74 0.67 0.74 0.64 0.43 0.44 0.34 0.47 0.55 0.56 0.45 0.48 0.53 0.53 0.41 0.59 0.69 0.64 0.58 0.53 0.58 0.56 0.55 0.55 0.46 0.42 0.39 0.27 0.26 0.16 0.22 0.28 0.25 0.23 0.23 0.24
0.51 0.55 0.60 0.57 0.54 0.51 0.53 0.56 0.56 0.69 0.79 0.72 0.83 0.85 0.70 0.52 0.42 0.45 0.52 0.58 0.59 0.49 0.49 0.63 0.58 0.63 0.68 0.57 0.46 0.37 0.35 0.36 0.41 0.47 0.49 0.52 0.44 0.31 0.25 0.23 0.24 0.26 0.27 0.23 0.22 0.23 0.28
0.50 0.56 0.56 0.53 0.49 0.48 0.50 0.53 0.56 0.67 0.75 0.77 0.84 0.91 0.82 0.61 0.46 0.46 0.49 0.56 0.46 0.48 0.62 0.72 0.70 0.73 0.69 0.53 0.41 0.27 0.23 0.29 0.31 0.35 0.43 0.42 0.43 0.31 0.25 0.21 0.16 0.29 0.32 0.31 0.27 0.20 0.33
0.49 0.50 0.51 0.49 0.45 0.45 0.49 0.52 0.63 0.72 0.80 0.81 0.84 0.96 0.79 0.78 0.66 0.53 0.48 0.46 0.58 0.54 0.66 0.68 0.54 0.56 0.60 0.44 0.32 0.26 0.24 0.35 0.32 0.33 0.31 0.32 0.31 0.26 0.27 0.24 0.28 0.37 0.36 0.35 0.20 0.27 0.40
0.45 0.47 0.46 0.44 0.45 0.45 0.50 0.56 0.62 0.75 0.77 0.84 0.87 1.01 0.92 0.78 0.64 0.62 0.59 0.54 0.62 0.58 0.66 0.63 0.49 0.48 0.46 0.32 0.30 0.31 0.30 0.35 0.33 0.36 0.33 0.29 0.29 0.29 0.33 0.29 0.21 0.37 0.32 0.24 0.38 0.41 0.36
0.46 0.45 0.45 0.47 0.49 0.52 0.52 0.64 0.75 0.82 0.91 0.98 0.86 1.03 1.22 0.91 0.78 0.77 0.83 0.84 0.80 0.77 0.81 0.64 0.48 0.44 0.46 0.39 0.38 0.41 0.34 0.36 0.32 0.24 0.38 0.29 0.33 0.31 0.30 0.31 0.39 0.36 0.33 0.39 0.40 0.37 0.41
Wind_Speed
38 38 38 37 35 36 35 33 31 30 29 27 27 26 25 24 24 24 24 24 24 24 24 23 22 20 16 12 13 11 9 7 7 7 9 10 9 10 11 10 13 15 14 14 9 12 6
35 37 38 38 37 36 36 35 32 31 29 28 27 26 25 24 24 24 24 24 23 23 23 21 20 17 14 13 9 10 8 6 6 8 9 10 9 9 10 10 13 11 15 7 10 11 9
36 35 35 38 39 37 36 36 34 32 31 29 28 26 25 24 24 23 23 23 23 22 21 19 18 15 14 14 9 8 7 5 6 7 9 8 10 9 7 7 11 8 10 8 8 7 8
38 37 36 35 37 38 37 37 36 34 32 30 28 27 26 24 23 23 22 22 21 20 19 18 16 14 13 11 11 11 8 7 6 8 9 9 8 11 10 8 8 11 9 8 7 8 10
41 40 38 36 36 37 37 37 37 36 33 31 29 27 25 24 23 22 21 20 20 19 17 16 14 12 12 10 11 9 9 8 5 6 7 7 7 10 10 9 9 7 8 8 10 11 7
44 43 41 39 37 36 36 36 37 36 34 32 29 27 25 23 22 21 20 19 18 17 15 14 14 13 12 9 9 9 8 7 5 5 5 6 8 9 10 10 7 7 10 12 9 9 11
48 46 44 42 40 37 35 35 36 36 34 32 30 27 25 23 22 20 18 16 14 13 15 14 12 11 5 7 8 10 9 8 7 7 8 8 9 9 7 10 9 5 11 10 11 10 9
51 49 47 45 43 40 38 36 35 35 35 32 30 28 25 23 21 19 17 15 12 14 17 17 17 16 14 10 8 12 11 10 9 10 3 6 8 9 10 14 12 9 4 3 11 7 9
54 52 50 47 45 43 40 37 36 34 34 32 31 28 26 23 20 19 18 18 16 15 15 16 16 15 13 11 12 13 12 13 11 9 8 8 8 8 11 11 9 4 7 6 3 7 9
57 55 53 51 48 45 42 40 37 35 34 33 31 28 25 22 19 18 16 15 16 13 13 13 11 13 14 10 13 14 16 14 7 11 8 7 12 10 10 10 6 5 4 7 9 10 8
62 59 56 54 51 48 45 42 39 37 36 34 32 29 26 25 18 17 11 12 11 9 10 7 10 8 13 13 5 16 11 15 9 11 10 5 10 10 12 6 6 6 14 12 13 9 7
64 63 60 57 54 51 48 45 42 39 38 36 33 31 28 25 22 20 14 11 10 10 11 6 6 12 15 14 14 11 16 17 12 9 12 10 10 11 10 6 6 8 8 10 9 10 10
65 64 61 59 57 54 51 47 44 42 40 38 35 33 30 27 22 22 17 14 12 13 11 9 11 12 15 13 14 12 16 19 16 12 11 10 12 8 8 9 8 11 10 7 4 7 8
69 66 64 61 59 57 54 50 47 44 42 40 37 35 33 31 27 20 20 17 17 13 18 6 11 12 17 14 14 14 16 19 19 19 11 12 11 12 11 10 7 9 10 5 5 5 5
71 68 66 64 61 58 55 52 49 46 44 42 38 36 35 33 31 25 24 23 19 15 18 11 11 13 16 17 11 15 18 19 20 20 16 9 8 7 5 8 9 5 7 6 10 4 6
70 69 68 65 63 60 57 54 50 47 45 44 39 36 36 35 34 29 27 29 23 23 11 14 15 15 16 16 14 13 15 17 20 19 16 12 11 15 14 9 10 10 7 6 6 6 7
70 69 66 66 63 61 58 56 52 49 47 45 40 35 35 38 35 32 33 29 27 24 18 13 16 15 19 16 16 15 13 14 19 15 17 13 9 9 8 10 11 8 10 10 10 8 5
67 68 67 65 64 62 61 57 53 50 48 46 40 35 38 41 35 34 34 32 29 23 20 18 15 18 17 18 16 18 16 16 15 16 14 18 10 9 11 7 7 10 10 11 9 10 8
61 63 64 65 66 62 62 59 57 53 53 46 40 36 38 41 37 36 35 35 32 28 21 20 19 18 16 18 16 17 14 9 9 14 12 13 12 11 12 10 9 12 15 15 14 9 12
54 57 59 61 64 62 64 61 59 57 57 48 40 38 36 41 40 40 38 34 34 31 25 21 20 19 17 19 17 15 15 12 12 12 12 12 12 14 12 14 9 10 13 15 15 11 12
44 49 54 57 58 60 64 63 61 59 59 51 43 41 39 39 44 40 38 35 35 32 29 23 23 23 20 17 18 17 17 11 13 13 13 14 16 17 17 17 14 15 14 12 15 15 16
40 43 49 51 53 57 60 62 61 62 61 55 46 40 41 31 41 41 39 40 36 33 28 26 24 23 22 19 19 17 16 14 13 13 15 14 14 13 15 15 17 17 19 19 19 18 18
36 41 45 45 50 53 57 59 61 63 62 51 50 44 38 43 40 42 41 39 37 31 29 27 25 21 23 17 16 11 13 16 12 13 15 14 13 11 12 11 12 13 15 18 19 19 18
36 41 43 43 45 50 52 57 60 62 62 52 52 41 35 38 42 45 42 38 37 34 26 26 25 25 20 19 13 10 8 9 9 9 13 13 13 10 10 10 10 13 8 10 11 12 14
37 42 41 42 43 46 51 55 59 59 61 56 51 40 35 35 42 44 41 39 35 31 28 24 23 24 26 18 15 12 11 10 12 11 12 13 11 10 11 12 13 14 9 8 9 8 8
37 39 40 39 41 44 49 55 61 57 60 58 51 43 32 34 42 48 42 40 33 29 28 25 24 24 21 17 15 14 12 13 12 11 12 12 12 11 10 10 10 9 8 8 10 12 11
35 37 39 38 40 43 50 56 57 59 60 55 46 43 34 34 39 48 42 37 31 30 21 28 27 23 20 16 14 12 12 11 11 11 10 9 11 12 10 10 12 8 9 11 11 10 12
33 35 36 38 40 44 52 55 57 60 60 51 44 41 27 35 35 42 37 36 31 32 24 28 26 22 20 15 13 11 10 12 10 11 10 11 10 10 10 9 12 9 9 9 10 12 15
32 33 35 38 41 49 52 55 58 61 56 48 38 38 19 31 35 37 30 29 32 36 22 26 22 23 19 16 13 11 10 9 9 10 11 10 10 9 10 9 9 9 10 11 13 16 18
Wind_Direction
256 256 256 257 258 257 259 261 264 267 269 273 275 277 281 284 289 293 297 301 305 308 311 313 313 314 312 292 285 297 303 291 266 247 236 241 233 231 236 239 228 225 233 232 248 250 242
258 257 256 256 257 259 257 258 261 264 267 270 273 274 278 282 287 291 295 299 303 306 308 310 310 310 302 286 302 292 292 282 261 237 234 235 230 238 256 259 217 225 228 235 246 244 231
258 259 259 257 256 257 257 256 258 261 264 268 270 271 275 279 284 289 293 297 300 303 306 307 307 305 294 273 282 297 270 274 253 232 238 233 240 243 217 245 233 230 227 232 239 237 216
257 258 258 258 257 256 256 255 256 258 261 264 266 269 272 277 282 286 291 294 298 300 302 302 301 301 291 286 271 265 255 263 260 250 241 248 243 236 233 254 232 218 209 217 219 200 194
256 256 257 258 258 257 256 255 254 255 258 260 263 266 269 273 278 284 288 291 294 297 297 297 296 292 286 288 261 248 241 255 244 243 234 236 227 215 214 211 208 204 204 189 216 203 180
255 255 256 256 257 258 256 255 253 252 255 257 259 262 264 269 275 281 284 287 292 295 293 287 287 292 276 271 249 243 231 237 224 212 208 217 195 197 199 206 185 196 236 204 209 184 203
255 255 255 255 255 256 256 255 254 251 251 253 255 258 261 265 271 276 279 282 289 291 281 275 284 266 273 281 256 231 225 218 223 201 208 195 192 196 225 187 202 229 234 220 215 187 208
253 253 253 253 253 253 254 254 253 250 248 249 251 254 256 260 265 268 268 265 285 299 291 270 265 262 266 273 257 220 210 214 213 221 214 225 209 214 219 208 240 264 235 281 162 197 214
251 251 251 251 251 251 251 251 251 250 245 245 247 249 251 255 258 260 258 258 271 303 286 284 250 251 244 239 235 220 207 218 232 225 229 290 214 228 200 212 216 258 156 229 252 231 218
250 250 250 249 249 249 248 247 247 247 243 242 242 244 245 245 251 253 255 259 259 283 288 278 236 241 229 232 235 222 219 220 223 238 203 273 230 231 242 227 238 225 289 197 229 218 224
249 249 248 247 247 246 246 245 243 243 241 238 239 239 237 234 246 237 263 242 243 260 288 261 229 232 212 216 206 217 217 221 221 231 212 256 221 236 244 208 239 231 235 248 248 247 229
248 246 246 246 245 244 243 243 241 240 238 235 235 234 233 232 234 234 248 236 230 252 265 257 210 215 211 219 235 226 215 218 229 228 217 209 224 246 211 219 240 205 225 246 251 256 232
246 244 243 243 242 242 241 240 239 237 235 232 233 229 227 226 226 229 227 221 231 244 252 234 207 211 217 218 225 230 203 211 219 214 211 208 223 227 215 225 234 238 250 250 297 270 237
243 243 241 241 240 239 238 238 236 234 233 229 229 226 225 224 224 225 216 219 235 236 241 257 216 217 214 214 217 216 220 212 218 224 220 215 227 229 235 243 236 274 248 230 269 236 274
241 240 238 238 237 236 235 234 233 231 230 225 224 225 225 221 219 219 215 222 224 237 223 238 221 216 215 220 220 214 221 218 219 217 234 240 226 254 253 231 203 235 239 228 261 263 266
239 238 236 234 234 232 231 230 229 227 225 220 222 223 224 216 213 215 219 225 228 228 254 221 224 217 217 218 209 214 213 222 219 220 210 223 228 256 241 234 231 244 268 260 245 262 266
237 234 233 231 231 229 227 226 224 222 219 215 219 222 219 210 208 215 220 221 226 227 240 244 227 227 224 218 209 221 215 216 211 209 222 207 231 245 224 227 239 226 252 244 261 260 260
234 231 231 228 226 225 223 221 219 217 212 210 216 219 208 202 208 215 219 217 221 223 234 233 234 228 223 220 216 218 215 217 214 219 219 224 248 219 230 228 252 263 266 246 246 260 247
230 228 227 226 223 222 218 217 214 211 207 207 213 211 204 204 212 215 215 219 221 222 231 223 231 228 223 222 218 209 216 209 190 207 216 218 229 242 257 243 250 250 252 252 260 249 247
225 225 224 221 220 220 214 213 210 208 204 205 207 205 206 211 214 211 210 215 218 222 228 221 224 219 224 217 208 209 212 208 211 217 220 230 232 240 246 256 274 256 252 250 245 245 251
220 220 217 215 215 215 210 209 207 204 202 203 206 208 206 208 210 210 210 211 215 215 221 227 221 219 211 211 208 213 215 209 220 225 228 233 242 253 256 260 269 266 268 254 250 251 246
216 213 208 209 211 207 206 205 204 202 200 204 205 204 204 211 206 209 209 212 214 213 214 222 216 214 208 212 214 211 220 212 220 222 226 232 243 253 261 265 268 264 261 261 261 263 264
209 201 200 202 201 201 202 202 201 198 196 201 203 203 205 209 204 205 209 210 214 213 214 216 211 205 208 208 202 202 215 216 228 218 225 229 242 245 254 268 271 269 257 254 257 259 262
200 196 194 195 196 199 199 199 197 196 197 200 198 201 206 205 204 206 206 208 211 212 210 208 210 210 197 190 186 193 199 213 219 232 230 231 239 247 252 254 254 255 254 263 268 271 271
192 191 192 194 197 198 198 195 194 192 195 197 195 200 205 206 204 202 203 204 210 207 204 211 206 197 192 197 209 214 225 234 234 233 232 237 234 246 243 243 259 270 251 260 265 268 284
189 191 193 196 196 196 195 193 189 193 193 192 197 202 206 207 206 199 198 204 202 201 200 205 187 188 193 199 205 214 222 227 223 225 238 239 233 237 237 242 241 249 244 258 266 260 286
190 193 194 195 195 193 190 187 187 187 184 188 193 198 205 204 202 195 199 202 200 200 213 194 189 191 195 198 207 216 223 227 217 220 227 231 236 230 232 243 258 249 254 266 263 274 285
186 187 188 188 188 186 183 184 184 183 183 185 187 193 213 212 190 190 199 202 196 197 197 183 184 192 192 198 205 212 215 220 227 220 218 220 219 231 235 244 257 247 257 262 275 284 294
174 177 180 181 179 176 179 177 176 175 178 182 187 187 205 194 185 184 189 195 198 196 183 186 188 190 194 197 207 210 214 222 227 226 219 228 227 231 230 250 247 257 274 279 286 293 298